STARLINK-4677 (53600 NORAD) Tracking and Keplerian Element Data

This shows tracking and keplerian element data for the satellite.

Feedback or suggestion? Click here.




ElementValue
Catalog53600
NameSTARLINK-4677
Epoch Orbit1352
Epoch Day325.33334491
Epoch Year2022
RAAN250.4267
Inclination53.2186
Eccentricity0.0001832
Argument of Perigee41.689
Mean Anonmoly247.4204
Mean Motion15.08823158
Decay Rate0.00015213
L11 53600U 22104N 22325.33334491 .00015213 00000+0 97233-3 0 9995
L22 53600 53.2186 250.4267 0001832 41.6890 247.4204 15.08823158 13524



Live tracking and technical data element details for STARLINK-4677 (NORAD 53600). STARLINK-4677 can be tracked NOW for your location showing map with azimuth and elevation plus other details from your city location.







IsCatalogInMostPopularTable: catalog: 53600, numindb: 1
Update: records affected: 1



GetName: 53600 STARLINK-4677

Hit Count: updated at: Thu, 08 Dec 2022 19:24:26 GMT